Probability
0 0 0 0 0 0 0 0 0 0 0 0 1 4 11 19 26 31 37 45 52 52 52 50 44 36 31 33 34 33 32 34 37 40 44 48 52 55 54 51 49 49 52 55
0 0 0 0 0 0 0 0 0 0 0 0 1 2 5 10 16 20 28 39 44 44 42 38 32 25 21 20 21 22 24 24 26 31 35 38 40 42 42 41 39 38 40 42
0 0 0 0 0 0 0 0 0 0 0 0 0 0 1 3 7 14 23 31 33 30 24 20 15 10 7 7 7 9 11 11 12 18 23 23 22 22 22 22 22 22 24 25
0 0 0 0 0 0 0 0 0 0 0 0 0 0 0 2 7 14 21 24 21 15 10 7 4 2 1 1 2 3 4 5 6 10 12 11 9 8 8 8 9 9 11 13
0 0 0 0 0 0 0 0 0 0 0 0 0 0 0 2 5 9 11 12 10 6 3 2 1 0 0 1 1 2 4 5 6 8 8 5 3 2 2 2 2 2 4 5
0 0 0 0 0 0 0 0 0 0 0 0 0 0 0 1 2 3 4 3 2 1 1 0 0 0 1 2 3 5 7 7 8 10 9 5 2 1 0 0 0 0 0 1
0 0 0 0 0 0 0 0 0 0 0 0 0 0 0 0 0 1 2 1 0 0 0 0 0 0 1 2 4 6 7 8 8 10 9 6 3 1 0 0 0 0 0 0
0 0 0 0 0 0 0 0 0 0 0 0 0 0 0 0 0 1 1 0 0 0 0 0 0 0 0 1 2 3 4 4 6 8 8 5 2 1 0 0 0 0 0 0
0 0 0 0 0 0 0 0 0 0 0 0 0 0 0 0 0 0 0 0 0 0 0 0 0 0 0 0 0 1 1 1 3 5 6 4 2 1 1 0 0 0 0 0
0 0 0 0 0 0 0 0 0 0 0 0 0 0 0 0 0 0 0 0 0 0 0 0 0 0 0 0 0 0 0 0 1 2 4 4 3 2 1 0 0 0 0 0
0 0 0 0 0 0 0 0 0 0 0 0 0 0 0 0 0 0 0 0 0 0 0 0 0 0 0 0 0 0 0 0 0 0 1 2 2 2 1 0 0 0 0 0
0 0 0 0 0 0 0 0 0 0 0 0 0 0 0 0 0 0 0 0 0 0 0 0 0 0 0 0 0 0 0 0 0 0 0 0 1 1 0 0 0 0 0 0
0 0 0 0 0 0 0 0 0 0 0 0 0 0 0 0 0 0 0 0 0 0 0 0 0 0 0 0 0 0 0 0 0 0 0 0 0 0 0 0 0 0 0 0
0 0 0 0 0 0 0 0 0 0 0 0 0 0 0 0 0 0 0 0 0 0 0 0 0 0 0 0 0 0 0 0 0 0 0 0 0 0 0 0 0 0 0 0
0 0 0 0 0 0 0 0 0 0 0 0 0 0 0 0 0 0 0 0 0 0 0 0 0 0 0 0 0 0 0 0 0 0 0 0 0 0 0 0 0 0 0 0
0 0 0 0 0 0 0 0 0 0 0 0 0 0 0 0 0 0 0 0 0 0 0 0 0 0 0 0 0 0 0 0 0 0 0 0 0 0 0 0 0 0 0 0
0 0 0 0 0 0 0 0 0 0 0 0 0 0 0 0 0 0 0 0 0 0 0 0 0 0 0 0 0 0 0 0 0 0 0 0 0 0 0 0 0 0 0 0
0 0 0 0 0 0 0 0 0 0 0 0 0 0 0 0 0 0 0 0 0 0 0 0 0 0 0 0 0 0 0 0 0 0 0 0 0 0 0 0 0 0 0 0
0 0 0 0 0 0 0 0 0 0 0 0 0 0 0 0 0 0 0 0 0 0 0 0 0 0 0 0 0 0 0 0 0 0 0 0 0 0 0 0 0 0 0 0
0 0 0 0 0 0 0 0 0 0 0 0 0 0 0 0 0 0 0 0 0 0 0 0 0 0 0 0 0 0 0 0 0 0 0 0 0 0 0 0 0 0 0 0
0 0 0 0 0 0 0 0 0 0 0 0 0 0 0 0 0 0 0 0 0 0 0 0 0 0 0 0 0 0 0 0 0 0 0 0 0 0 0 0 0 0 0 0
0 0 0 0 0 0 0 0 0 0 0 0 0 0 0 0 0 0 0 0 0 0 0 0 0 0 0 0 0 0 0 0 0 0 0 0 0 0 0 0 0 0 0 0
0 0 0 0 0 0 0 0 0 0 0 0 0 0 0 0 0 0 0 0 0 0 0 0 0 0 0 0 0 0 0 0 0 0 0 0 0 0 0 0 0 0 0 0
0 0 0 0 0 0 0 0 0 0 0 0 0 0 0 0 0 0 0 0 0 0 0 0 0 0 0 0 0 0 0 0 0 0 0 0 0 0 0 0 0 0 0 0
0 0 0 0 0 0 0 0 0 0 0 0 0 0 0 0 0 0 0 0 0 0 0 0 0 0 0 0 0 0 0 0 0 0 0 0 0 0 0 0 0 0 0 0
0 0 0 0 0 0 0 0 0 0 0 0 0 0 0 0 0 0 0 0 0 0 0 0 0 0 0 0 0 0 0 0 0 0 0 0 0 0 0 0 0 0 0 0
Wind_Speed
3 4 2 4 5 3 1 0 2 4 4 4 4 3 4 4 4 4 4 4 4 4 3 3 4 6 6 5 6 5 5 4 4 2 2 3 4 4 4 5 6 7 7 7
4 3 6 4 3 2 1 1 2 3 4 3 3 3 3 3 1 1 3 3 4 3 2 2 2 3 5 6 6 5 5 4 4 3 2 2 2 2 3 3 4 5 5 6
3 6 2 1 2 3 1 3 2 2 4 5 3 6 4 4 4 3 2 2 3 5 5 4 3 3 4 5 6 5 5 4 3 2 1 0 1 2 2 2 3 4 4 5
3 5 1 1 1 4 1 3 2 0 2 3 3 2 6 4 4 2 1 2 3 4 4 4 4 4 5 5 4 3 3 3 2 2 2 2 2 2 3 2 3 5 5 5
4 3 2 1 2 2 3 3 3 2 2 2 3 1 7 3 2 3 4 5 6 6 6 7 7 7 6 4 3 3 3 2 2 2 2 2 3 3 3 3 4 5 5 5
4 3 1 1 2 2 3 6 5 5 5 2 1 0 6 3 4 4 5 6 7 7 6 6 6 5 4 3 3 3 3 3 3 3 3 3 4 4 4 4 4 4 4 4
7 7 5 1 3 4 6 7 6 7 6 4 3 2 7 5 4 4 5 6 6 5 5 6 6 6 5 4 5 4 4 5 4 4 4 4 4 4 4 5 4 5 4 4
2 6 5 2 1 2 1 7 6 3 4 5 4 3 4 4 6 5 4 4 5 5 5 5 5 4 4 4 4 4 5 5 4 4 5 4 4 3 4 5 4 5 5 5
3 5 5 3 2 3 4 2 5 6 2 2 5 5 6 10 14 13 11 10 9 8 8 7 6 5 5 5 4 4 4 5 5 5 5 5 5 4 5 5 4 4 5 5
7 4 5 6 4 4 2 7 5 5 4 3 5 3 5 11 13 13 12 10 10 10 10 10 8 8 7 6 6 5 4 5 5 5 5 5 5 5 5 4 5 5 5 5
4 4 5 5 3 3 2 4 5 4 4 5 4 5 1 3 6 7 8 8 9 10 11 10 10 9 9 9 9 9 8 7 6 6 6 6 6 5 4 4 5 5 5 5
3 5 2 5 5 2 1 3 6 2 3 4 4 5 2 2 3 4 6 7 7 8 8 8 9 11 12 12 11 10 9 9 8 7 6 7 6 5 5 5 5 4 5 5
6 6 3 8 7 3 1 2 3 4 3 4 4 5 2 3 3 5 5 7 7 8 9 9 10 11 11 11 10 10 10 10 10 8 8 7 7 6 7 6 5 5 4 4
7 5 6 7 8 5 3 2 2 5 3 5 7 5 2 5 6 7 6 6 6 7 8 9 9 9 8 8 8 10 10 10 11 10 9 9 8 8 8 7 6 5 4 4
5 4 6 7 5 1 1 2 2 2 3 5 2 4 1 4 5 6 6 6 7 9 10 10 9 9 9 9 9 9 10 10 11 11 10 10 9 8 7 7 6 5 4 4
3 3 2 4 3 2 1 3 3 3 3 3 5 2 2 4 4 6 7 8 9 10 10 10 10 10 11 11 11 11 11 11 11 11 11 10 9 7 8 7 6 6 5 4
1 4 3 4 2 2 2 4 2 3 3 2 1 2 6 7 9 10 9 8 9 10 12 12 12 11 11 11 10 10 10 10 10 11 11 10 9 8 8 8 7 7 6 5
5 4 3 1 1 2 1 3 5 5 3 3 3 5 7 8 11 11 7 5 8 11 12 13 12 11 11 11 10 10 10 10 10 11 11 10 9 9 8 7 8 8 6 6
4 5 3 2 1 1 2 2 3 2 0 3 4 8 9 9 8 6 4 5 8 11 12 12 12 12 11 12 12 11 11 11 11 11 11 11 10 10 9 8 9 8 7 7
6 5 5 2 0 1 2 6 6 1 1 2 5 8 9 8 7 7 7 10 13 14 12 12 11 11 11 12 10 10 12 12 12 12 11 11 10 10 10 10 9 7 7 8
6 6 4 2 1 2 4 9 7 1 4 6 7 8 9 7 9 11 12 14 14 14 15 14 12 11 11 11 10 11 12 13 13 12 11 11 10 10 11 9 8 7 8 8
3 3 4 3 3 2 6 6 3 4 6 6 8 9 10 11 13 14 14 14 13 14 14 13 11 12 11 10 10 12 13 14 12 12 12 12 11 10 10 8 9 8 9 10
3 2 1 2 1 2 3 3 5 5 7 8 7 11 12 13 14 15 14 14 14 14 14 12 12 12 11 10 10 13 14 13 12 12 12 12 11 10 9 8 9 8 8 9
3 2 3 2 1 4 6 6 6 6 8 10 11 13 12 14 16 16 15 14 14 14 13 12 12 12 13 12 12 13 14 12 12 13 12 11 10 10 9 7 7 7 8 9
2 2 2 1 4 7 6 6 7 8 10 12 12 12 13 14 16 16 15 14 14 14 13 12 12 13 15 14 13 14 13 12 12 12 12 11 10 10 9 8 7 8 9 11
1 2 2 4 5 5 8 9 10 11 12 14 15 14 14 14 16 17 16 15 14 14 14 13 14 14 15 14 14 14 13 11 12 11 11 9 8 8 8 7 8 11 12 14
Wind_Direction
21 49 269 235 202 197 178 218 286 286 321 47 50 29 0 20 79 110 115 116 110 90 60 62 91 113 119 130 145 162 172 182 170 170 192 217 237 240 243 242 248 253 255 255
16 305 251 225 193 184 173 155 279 299 351 46 29 10 345 5 353 174 158 147 130 108 83 78 109 128 140 155 165 169 177 186 187 185 189 205 232 253 255 271 276 271 270 265
231 261 278 147 138 135 168 176 211 285 352 25 35 352 344 348 10 49 94 119 136 157 163 173 167 172 168 177 182 180 189 197 199 192 154 319 321 309 304 290 289 288 287 282
276 279 326 53 105 145 228 242 214 141 54 336 27 310 303 333 352 23 118 171 197 199 199 204 204 209 208 208 203 187 189 199 202 176 185 211 236 262 266 277 286 299 302 297
306 312 344 355 292 178 196 56 69 63 113 46 24 80 291 335 315 263 228 223 226 224 219 220 220 223 229 224 212 199 191 200 203 189 197 223 251 258 277 290 297 303 305 300
278 305 301 269 21 50 102 68 51 47 63 61 328 223 284 273 250 254 236 232 235 236 240 248 253 251 249 241 223 208 203 219 215 210 213 222 246 265 287 298 302 303 302 298
339 336 333 2 33 16 66 70 23 4 11 268 280 217 255 288 294 265 249 247 254 257 259 265 266 259 251 241 230 222 218 232 228 225 229 230 239 250 263 279 288 297 300 298
339 311 305 338 184 220 131 131 151 204 231 278 321 239 256 339 346 356 355 343 340 334 319 301 298 297 288 272 250 236 233 240 237 234 240 240 242 245 256 264 273 281 285 289
198 266 293 329 308 162 143 152 160 137 175 267 286 295 315 1 8 10 10 11 2 352 352 346 343 334 316 305 286 260 254 257 251 243 245 248 245 244 254 263 266 276 283 292
172 238 295 323 23 29 102 139 99 116 156 252 285 297 309 341 349 359 9 9 3 5 8 6 3 1 359 353 341 330 308 287 283 272 257 252 248 246 251 259 268 277 286 292
143 172 302 354 20 337 38 77 95 111 155 171 251 265 129 343 340 351 359 7 8 10 9 10 9 8 8 7 5 357 346 329 315 296 279 270 261 252 249 252 261 270 281 291
123 123 272 290 279 261 254 146 141 136 248 191 210 252 70 35 355 357 1 5 9 12 11 12 11 13 13 10 5 358 349 338 322 306 286 269 261 252 248 252 258 265 277 287
141 111 41 345 338 342 52 153 145 131 136 176 196 239 101 28 4 358 356 355 359 3 7 9 11 11 7 2 357 351 346 337 328 319 300 280 263 248 244 245 251 257 267 283
116 121 164 207 227 235 269 278 152 142 184 225 220 184 12 354 349 346 350 348 352 358 1 2 1 356 351 348 345 343 341 336 331 324 310 290 270 253 245 241 240 246 253 269
112 175 219 236 245 213 248 319 2 181 218 223 228 125 4 327 322 325 334 343 353 356 358 355 348 341 337 338 336 336 333 333 331 324 314 300 283 260 247 239 235 235 238 249
87 186 207 278 277 187 126 23 36 43 26 68 93 88 326 315 319 329 335 342 348 345 343 339 337 334 331 329 327 327 325 325 325 321 313 308 301 275 251 241 233 227 227 231
122 141 139 265 298 88 22 355 62 72 29 48 81 340 333 336 335 326 321 328 333 332 331 328 325 318 313 310 308 309 309 313 317 317 314 312 309 294 269 246 232 226 220 211
142 125 140 259 28 236 74 43 87 104 77 51 28 340 333 320 309 297 287 305 319 321 317 310 303 300 298 294 293 293 298 303 308 312 314 312 311 305 290 259 237 227 213 203
121 129 109 104 165 134 118 36 20 337 237 46 346 325 321 317 307 293 276 290 297 297 293 290 287 287 288 289 290 293 295 297 299 301 305 308 304 301 297 276 249 227 210 202
49 71 93 88 323 314 10 328 327 279 209 32 326 312 313 324 317 291 290 298 300 298 295 291 289 287 285 285 287 286 288 289 289 290 293 297 296 292 289 283 262 231 212 205
9 23 52 53 28 70 324 314 326 334 307 306 300 295 296 286 268 277 288 293 291 292 293 293 292 289 284 287 290 286 286 282 281 284 286 290 290 289 282 279 269 237 213 198
26 29 24 19 16 354 336 6 36 269 275 283 289 288 285 282 285 290 293 291 290 292 291 290 288 286 286 287 288 287 285 283 285 285 283 283 284 288 291 281 275 245 212 196
53 38 32 62 95 255 280 256 258 262 280 285 283 285 290 291 291 293 291 289 289 287 286 284 280 282 284 281 278 281 282 284 285 284 280 280 282 281 281 277 275 250 214 196
16 6 88 63 313 279 281 275 273 272 270 277 281 285 288 287 288 289 289 287 285 282 281 280 278 279 281 279 276 274 279 283 282 281 280 278 279 279 279 270 267 245 218 199
323 22 71 317 279 296 295 284 282 290 292 292 292 290 285 285 287 286 287 286 283 281 279 275 273 273 277 280 277 277 279 281 279 279 279 277 272 272 276 271 263 244 228 206
241 165 163 237 248 250 271 279 290 292 289 291 292 291 285 283 284 286 287 285 284 283 282 280 276 274 277 279 279 279 278 276 274 277 277 273 271 272 269 275 275 248 233 213